New York Downtown Manhattan/w, NY

3:17 AM EST on December 16, 2019 (GMT -0500)
New York Downtown Manhattan/w

Weather History for KJRB - November, 2019

Change the Weather History Date:

Saturday, November 16, 2019

  Actual Average (WUND) Record (WUND)
Temperature  
Mean Temperature 40 °F -  
Max Temperature 46 °F - - (-1)
Min Temperature 35 °F - - (-1)
Degree Days  
Heating Degree Days 24    
Moisture  
Dew Point 17 °F    
Average Humidity 41    
Maximum Humidity 58    
Minimum Humidity 26    
Precipitation  
Precipitation 0.00 in - - ()
Sea Level Pressure  
Sea Level Pressure 30.41 in    
Wind  
Wind Speed 11 mph ()    
Max Wind Speed 18 mph    
Max Gust Speed 28 mph    
Averages and records for this station are not official NWS values.
T = Trace of Precipitation, MM = Missing Value Source: Averaged Metar Reports

Daily Weather History Graph

Daily Weather History Graph

Search for Another Location

Airport or City:

Astronomy

Nov. 16, 2019 Rise Set
Actual Time 6:43 AM EST 4:37 PM EST
Civil Twilight 6:14 AM EST 5:06 PM EST
Nautical Twilight 5:41 AM EST 5:39 PM EST
Astronomical Twilight 5:08 AM EST 6:12 PM EST
Moon 8:07 PM EST 10:35 AM EST
Length of Visible Light 10h 52m
Length of Day
9h 53m
Waning Gibbous, 82% of the Moon is Illuminated
Nov 16
Waning Gibbous
Nov 19
Last Quarter
Nov 26
New
Dec 4
First Quarter
Dec 12
Full

Hourly Weather History & Observations

Time (EST) Temp. Windchill Dew Point Humidity Pressure Visibility Wind Dir Wind Speed Gust Speed Precip Events Conditions
12:56 AM 43.0 °F 39.5 °F 28.9 °F 58% 30.25 in - Variable 5.8 mph - N/A   Clear
1:56 AM 43.0 °F 40.3 °F 28.0 °F 56% 30.26 in - Variable 4.6 mph - N/A   Clear
2:56 AM 42.1 °F 37.7 °F 27.0 °F 55% 30.27 in - Variable 6.9 mph - N/A   Clear
3:56 AM 42.1 °F 33.9 °F 28.0 °F 58% 30.29 in - NE 17.3 mph 25.3 mph N/A   Mostly Cloudy
4:56 AM 39.9 °F 30.8 °F 25.0 °F 55% 30.32 in - NE 18.4 mph 24.2 mph N/A   Partly Cloudy
5:56 AM 37.9 °F 30.0 °F 18.0 °F 45% 30.38 in - NE 12.7 mph 27.6 mph N/A   Clear
6:56 AM 37.0 °F 29.3 °F 18.0 °F 46% 30.43 in - NE 11.5 mph 27.6 mph N/A   Clear
7:56 AM 37.9 °F 29.6 °F 18.0 °F 45% 30.45 in - NE 13.8 mph 23.0 mph N/A   Clear
8:56 AM 37.9 °F 28.5 °F 16.0 °F 41% 30.46 in - NE 17.3 mph 27.6 mph N/A   Clear
9:56 AM 39.0 °F 30.3 °F 12.9 °F 34% 30.46 in - NE 16.1 mph 25.3 mph N/A   Clear
10:56 AM 42.1 °F 33.9 °F 14.0 °F 32% 30.47 in - NE 17.3 mph 27.6 mph N/A   Clear
11:56 AM 43.0 °F 34.8 °F 15.1 °F 32% 30.45 in - NE 18.4 mph 25.3 mph N/A   Clear
1:56 PM 46.0 °F 39.3 °F 17.1 °F 31% 30.43 in - ENE 16.1 mph 21.9 mph N/A   Clear
2:56 PM 45.0 °F 38.2 °F 15.1 °F 30% 30.43 in - NE 15.0 mph - N/A   Clear
3:56 PM 44.1 °F 37.7 °F 14.0 °F 30% 30.44 in - East 12.7 mph 19.6 mph N/A   Clear
4:56 PM 41.0 °F 32.5 °F 14.0 °F 33% 30.44 in - NE 17.3 mph 23.0 mph N/A   Clear
5:56 PM 39.9 °F 32.5 °F 7.0 °F 26% 30.45 in - NE 12.7 mph - N/A   Clear
6:56 PM 39.9 °F 32.1 °F 10.9 °F 31% 30.46 in - NE 13.8 mph - N/A   Clear
7:56 PM 39.0 °F 31.0 °F 14.0 °F 36% 30.48 in - NE 13.8 mph 21.9 mph N/A   Clear
8:56 PM 37.9 °F 29.6 °F 10.9 °F 33% 30.46 in - NNE 13.8 mph 17.3 mph N/A   Clear
9:56 PM 37.9 °F 29.6 °F 19.9 °F 48% 30.45 in - NE 13.8 mph - N/A   Clear
10:56 PM 35.1 °F 25.5 °F 12.0 °F 39% 30.45 in - NNE 15.0 mph 23.0 mph N/A   Clear
11:56 PM 35.1 °F 25.9 °F 16.0 °F 46% 30.45 in - NNE 13.8 mph 19.6 mph N/A   Clear